This demonstration page uses our WeatherBlox Daily Observations layout. Learn more.

Left ArrowRight Arrow

53.62937, 11.41316

Hourly Observations for January 10, 2018

Temp ( °F °C ) Dew Point ( °F °C ) Humidity (%) Winds ( mph kmh ) Pressure ( in mb ) Visibility ( mi km ) Precip ( " mm )
7:50 am 07:50 Mostly Cloudy 36 2 32 0 87 87 ESE 5 7 29.85 1011 30 48 N/A
8:20 am 08:20 Partly Cloudy 34 1 32 0 93 93 SE 7 11 29.88 1012 30 48 N/A
8:50 am 08:50 Mostly Cloudy 32 0 30 -1 93 93 E 6 9 29.88 1012 5 8 N/A
9:20 am 09:20 Mostly Cloudy 34 1 34 1 100 100 ESE 9 15 29.88 1012 5 8 N/A
9:50 am 09:50 Partly Cloudy 34 1 32 0 93 93 ENE 5 7 29.88 1012 6 9 N/A
10:20 am 10:20 Partly Cloudy 36 2 34 1 93 93 E 6 9 29.88 1012 6 9 N/A
10:50 am 10:50 Partly Cloudy 37 3 34 1 87 87 E 7 11 29.88 1012 30 48 N/A
11:20 am 11:20 Mostly Sunny 39 4 34 1 81 81 ENE 6 9 29.88 1012 7 11 N/A
12:20 pm 12:20 Mostly Sunny 37 3 34 1 87 87 E 9 15 29.88 1012 7 11 N/A
12:50 pm 12:50 Mostly Sunny 36 2 34 1 93 93 E 12 19 29.88 1012 5 8 N/A
1:20 pm 13:20 Mostly Cloudy with Mist and Fog 36 2 34 1 93 93 E 9 15 29.88 1012 3 5 N/A
1:50 pm 13:50 Mostly Cloudy with Mist and Fog 36 2 34 1 93 93 E 9 15 29.88 1012 1 2 N/A
2:20 pm 14:20 Cloudy with Mist and Fog 36 2 34 1 93 93 E 8 13 29.88 1012 1 2 N/A
2:50 pm 14:50 Cloudy with Mist and Fog 36 2 36 2 100 100 E 7 11 29.88 1012 1 2 N/A
3:20 pm 15:20 Cloudy with Mist and Fog 36 2 34 1 93 93 E 8 13 29.88 1012 1 2 N/A
3:50 pm 15:50 Cloudy with Mist and Fog 36 2 34 1 93 93 E 8 13 29.88 1012 1 1 N/A
4:20 pm 16:20 Cloudy with Fog 36 2 34 1 93 93 ESE 5 7 29.88 1012 0 1 N/A
4:50 pm 16:50 Cloudy with Fog 36 2 34 1 93 93 E 6 9 29.88 1012 1 1 N/A
5:20 pm 17:20 Cloudy with Mist and Fog 34 1 34 1 100 100 E 8 13 29.88 1012 1 1 N/A
5:50 pm 17:50 Cloudy with Mist and Fog 34 1 34 1 100 100 E 8 13 29.88 1012 1 2 N/A

Powered by AerisWeather